Regional Weather Roundup
Issued by NWS Sioux Falls, SD

Home | Current Version | Previous Version | Text Only | Print | Product List | Glossary On
Versions: 1 2 3 4 5 6 7 8 9 10 11 12 13 14 15 16 17 18 19 20 21 22 23 24 25 26 27 28 29 30 31 32 33 34 35 36 37 38 39 40 41 42 43 44 45 46 47 48 49 50
661
ASUS43 KFSD 290410
RWRFSD

WEATHER ROUNDUP FOR SE SOUTH DAKOTA/SW MINNESOTA/NW IOWA
NATIONAL WEATHER SERVICE SIOUX FALLS SD
1100 PM CDT SUN MAY 28 2017

NOTE: "FAIR" INDICATES FEW OR NO CLOUDS BELOW 12,000 FEET WITH NO
SIGNIFICANT WEATHER AND OR OBSTRUCTIONS TO VISIBILITY.


SDZ038>040-050-052>070-290500-
SOUTHEAST SOUTH DAKOTA

CITY           SKY/WX    TMP DP  RH WIND       PRES   REMARKS
BROOKINGS      CLOUDY    54  48  80 NW8       29.89R
CHAMBERLAIN    MOCLDY    65  46  49 N10       29.95R
HURON          CLEAR     55  48  77 N7        29.91R
MADISON        MOCLDY    52  52 100 W5        29.90R
MITCHELL       PTCLDY    59  46  62 N5        29.92R
SIOUX FALLS    PTCLDY    53  49  86 CALM      29.88S
WINNER         FAIR      59  49  69 W10       29.95S
YANKTON        PTCLDY    58  47  66 CALM      29.91R
$$

MNZ071-072-080-081-089-090-097-098-290500-
SOUTHWEST MINNESOTA

CITY           SKY/WX    TMP DP  RH WIND       PRES   REMARKS
FAIRMONT       CLOUDY    59  43  55 W9        29.82F
JACKSON        CLOUDY    54  45  71 W7        29.84F
LUVERNE        CLEAR     52  46  82 CALM      29.88R
MARSHALL       PTCLDY    57  46  66 NW21      29.83F
MONTEVIDEO     PTCLDY    57  45  62 N15G23    29.83R
PIPESTONE      PTCLDY    54  46  76 W7        29.88R
REDWOOD FALLS  PTCLDY    58  44  60 W14       29.80R
TRACY          MOCLDY    57  47  69 W9        29.84S
WINDOM         PTCLDY    54  46  76 W7        29.84S
WORTHINGTON    PTCLDY    54  46  74 SW8       29.86S
$$

IAZ001>003-012>014-020>022-031-032-NEZ013-014-SDZ071-290500-
NORTHWEST IOWA

CITY           SKY/WX    TMP DP  RH WIND       PRES   REMARKS
CHEROKEE       MOCLDY    55  49  80 CALM      29.87F
DENISON        PTCLDY    63  43  48 W3        29.88F
ESTHERVILLE    MOCLDY    54  50  86 W8        29.83F
LE MARS        MOCLDY    59  46  63 NW3       29.89S
ORANGE CITY    PTCLDY    57  46  67 CALM      29.87F
SHELDON        PTCLDY    54  46  76 CALM      29.87R
SIOUX CITY     CLOUDY    66  43  43 N5        29.87R
SPENCER        PTCLDY    54  50  86 CALM      29.85F
STORM LAKE     MOCLDY    57  46  67 N6        29.88S
$$

ABBREVIATIONS USED IN REMARKS
   TC - TEMPERATURE IN CELSIUS
  WCI - WIND CHILL INDEX
   HX - HEAT INDEX
  VSB - VISIBILITY





USA.gov is the U.S. government's official web portal to all federal, state and local government web resources and services.